Tracking 19242 objects as of 18-Sep-2018
HD Live streaming from Space Station
objects crossing your sky now

FENGYUN 1C DEB

Track FENGYUN 1C DEB now!
10-day predictions


NORAD ID: 38723
Int'l Code: 1999-025ETQ
Perigee: 766.7 km
Apogee: 829.5 km
Inclination: 99.5 °
Period: 100.7 minutes
Semi major axis: 7169 km
RCS: 0.0134 m2 (small)
Launch date: May 10, 1999
Source: People's Republic of China (PRC)
Launch site: Taiyaun Space Center, China (TSC)

Note: This is SATELLITE DEBRIS
aabbcc
Your satellite tracking list
Your tracking list is empty




NASA's NSSDC Master Catalog

Two Line Element Set (TLE):
1 38723U 99025ETQ 18250.82450379 +.00000925 +00000-0 +37286-3 0  9997
2 38723 099.4807 238.7414 0043783 140.0778 220.3635 14.30223368391289
Source of the keplerian elements: AFSPC